This demonstration page uses our WeatherBlox Daily Observations layout. Learn more.

39.29038, -76.61219

Hourly Observations for October 22, 2019

Temp ( °F °C ) Dew Point ( °F °C ) Humidity (%) Winds ( mph kmh ) Pressure ( in mb ) Visibility ( mi km ) Precip ( " mm )
12:54 am 00:54 undefined 61 16.1 55 12.8 81 81 undefined N/A 30.07 1018 N/A 0 0
1:54 am 01:54 undefined 61 16.1 56 13.3 84 84 undefined N/A 30.08 1019 N/A 0 0
2:54 am 02:54 undefined 61 16.1 56 13.3 84 84 undefined N/A 30.06 1018 N/A 0 0
3:54 am 03:54 undefined 61 16.1 55 12.8 81 81 undefined N/A 30.04 1017 N/A 0 0
4:54 am 04:54 undefined 60 15.6 57 13.9 90 90 undefined N/A 30.02 1017 N/A 0 0
5:54 am 05:54 undefined 60 15.6 57 13.9 90 90 undefined N/A 30.02 1017 N/A 0 0
6:54 am 06:54 undefined 60 15.6 58 14.4 93 93 undefined N/A 30.01 1016 N/A 0 0
7:54 am 07:54 undefined 60 15.6 58 14.4 93 93 undefined N/A 30.01 1016 N/A 0 0
8:54 am 08:54 undefined 60 15.6 59 15 96 96 undefined N/A 30.01 1016 N/A 0.01 0.254
9:54 am 09:54 undefined 60 15.6 59 15 96 96 undefined N/A 29.99 1016 N/A 0.01 0.254
10:54 am 10:54 undefined 61 16.1 59 15 93 93 undefined N/A 29.97 1015 N/A 0.01 0.254
11:54 am 11:54 undefined 61 16.1 59 15 93 93 undefined N/A 29.95 1014 N/A 0.01 0.254
12:54 pm 12:54 undefined 62 16.7 60 15.6 93 93 undefined N/A 29.91 1013 N/A 0 0
1:54 pm 13:54 undefined 62 16.7 60 15.6 93 93 undefined N/A 29.86 1011 N/A 0 0
2:54 pm 14:54 undefined 62 16.7 60 15.6 93 93 undefined N/A 29.83 1010 N/A 0 0
3:54 pm 15:54 undefined 62 16.7 61 16.1 96 96 undefined N/A 29.85 1011 N/A 0.11 2.794
4:54 pm 16:54 undefined 63 17.2 61 16.1 93 93 undefined N/A 29.81 1010 N/A 0.27 6.858
5:54 pm 17:54 undefined 62 16.7 60 15.6 93 93 undefined N/A 29.82 1010 N/A 0.23 5.842
6:54 pm 18:54 undefined 61 16.1 59 15 93 93 undefined N/A 29.82 1010 N/A 0.02 0.508
7:54 pm 19:54 undefined 61 16.1 59 15 93 93 undefined N/A 29.82 1010 N/A 0 0
8:54 pm 20:54 undefined 61 16.1 59 15 93 93 undefined N/A 29.83 1010 N/A 0 0
9:54 pm 21:54 undefined 61 16.1 57 13.9 87 87 undefined N/A 29.84 1011 N/A 0 0
10:54 pm 22:54 undefined 60 15.6 57 13.9 90 90 undefined N/A 29.86 1011 N/A 0 0
11:54 pm 23:54 undefined 59 15 57 13.9 93 93 undefined N/A 29.85 1011 N/A 0 0

Powered by AerisWeather